RYR2AB EPWA-LKPR

Flight info

Callsign RYR2AB
Flight time 1h 0m
Altitude 36000
Route SOXER N869 TOMTI DCT ASTEL DCT GOLOP
Aircraft B738/M-SDE2E3FGHIRWXY/LB1

Departure

Time 2026-05-07 19:03
Airport Warsaw Chopin Airport (EPWA)

Arrival

Time 2026-05-07 20:03
Airport Václav Havel Airport Prague (LKPR)
Time Latitude Longitude Altitude Speed Heading
2026-05-07 18:20 52.17654 20.96289 330 ft 0 kts 242°
2026-05-07 18:56 52.17651 20.96278 332 ft 4 kts 242°
2026-05-07 18:57 52.17625 20.96217 336 ft 8 kts 210°
2026-05-07 18:57 52.17571 20.96239 334 ft 8 kts 150°
2026-05-07 18:57 52.17520 20.96285 334 ft 9 kts 151°
2026-05-07 18:57 52.17456 20.96342 336 ft 12 kts 152°
2026-05-07 18:58 52.17404 20.96387 334 ft 13 kts 152°
2026-05-07 18:58 52.17328 20.96453 334 ft 12 kts 151°
2026-05-07 18:58 52.17225 20.96544 334 ft 13 kts 152°
2026-05-07 18:58 52.17171 20.96591 333 ft 13 kts 151°
2026-05-07 18:59 52.17057 20.96691 333 ft 17 kts 151°
2026-05-07 18:59 52.16985 20.96754 334 ft 18 kts 152°
2026-05-07 18:59 52.16877 20.96847 333 ft 17 kts 153°
2026-05-07 18:59 52.16774 20.96937 332 ft 16 kts 152°
2026-05-07 19:00 52.16679 20.97030 334 ft 16 kts 135°
2026-05-07 19:00 52.16627 20.97185 332 ft 15 kts 115°
2026-05-07 19:00 52.16583 20.97338 333 ft 15 kts 115°
2026-05-07 19:00 52.16538 20.97497 331 ft 15 kts 115°
2026-05-07 19:01 52.16495 20.97653 334 ft 15 kts 115°
2026-05-07 19:01 52.16446 20.97789 333 ft 14 kts 144°
2026-05-07 19:01 52.16356 20.97765 336 ft 13 kts 204°
2026-05-07 19:01 52.16309 20.97703 333 ft 6 kts 256°
2026-05-07 19:02 52.16318 20.97636 332 ft 6 kts 292°
2026-05-07 19:02 52.16337 20.97563 334 ft 13 kts 294°
2026-05-07 19:02 52.16493 20.97011 334 ft 99 kts 295°
2026-05-07 19:02 52.16898 20.95588 366 ft 175 kts 296°
2026-05-07 19:03 52.17461 20.93617 1091 ft 195 kts 295°
2026-05-07 19:03 52.18011 20.91619 2418 ft 189 kts 295°
2026-05-07 19:03 52.18279 20.89399 3096 ft 214 kts 266°
2026-05-07 19:03 52.18116 20.86891 3584 ft 228 kts 262°
2026-05-07 19:04 52.17794 20.84314 4137 ft 236 kts 257°
2026-05-07 19:04 52.17414 20.81751 4785 ft 242 kts 257°
2026-05-07 19:04 52.16987 20.78916 5241 ft 258 kts 257°
2026-05-07 19:04 52.16561 20.76062 6069 ft 262 kts 256°
2026-05-07 19:05 52.16139 20.73217 7039 ft 261 kts 256°
2026-05-07 19:05 52.15706 20.70271 7883 ft 265 kts 256°
2026-05-07 19:05 52.15279 20.67345 8748 ft 269 kts 256°
2026-05-07 19:05 52.14846 20.64377 9625 ft 271 kts 256°
2026-05-07 19:06 52.14446 20.61623 10337 ft 277 kts 256°
2026-05-07 19:06 52.13479 20.54978 10863 ft 323 kts 256°
2026-05-07 19:06 52.12955 20.51371 11485 ft 331 kts 256°
2026-05-07 19:07 52.12423 20.47713 12311 ft 333 kts 255°
2026-05-07 19:07 52.11893 20.44075 13132 ft 336 kts 255°
2026-05-07 19:07 52.11349 20.40349 13905 ft 339 kts 255°
2026-05-07 19:07 52.10799 20.36592 14611 ft 343 kts 255°
2026-05-07 19:08 52.10252 20.32863 15283 ft 346 kts 255°
2026-05-07 19:08 52.09686 20.29016 16002 ft 350 kts 254°
2026-05-07 19:08 52.09117 20.25158 16701 ft 353 kts 254°
2026-05-07 19:08 52.08542 20.21268 17388 ft 356 kts 254°
2026-05-07 19:09 52.07955 20.17304 18072 ft 360 kts 254°
2026-05-07 19:09 52.07371 20.13371 18684 ft 363 kts 254°
2026-05-07 19:09 52.06774 20.09363 19314 ft 365 kts 253°
2026-05-07 19:09 52.06173 20.05331 19930 ft 367 kts 253°
2026-05-07 19:10 52.05568 20.01282 20520 ft 370 kts 252°
2026-05-07 19:10 52.04958 19.97221 21101 ft 373 kts 252°
2026-05-07 19:10 52.04323 19.93105 21659 ft 375 kts 250°
2026-05-07 19:10 52.03552 19.89047 22211 ft 377 kts 247°
2026-05-07 19:11 52.02701 19.85022 22752 ft 379 kts 246°
2026-05-07 19:11 52.01814 19.80964 23298 ft 382 kts 245°
2026-05-07 19:11 52.00922 19.76902 23783 ft 385 kts 245°
2026-05-07 19:11 52.00013 19.72737 24233 ft 387 kts 245°
2026-05-07 19:12 51.99142 19.68711 24714 ft 388 kts 245°
2026-05-07 19:12 51.98240 19.64524 25185 ft 390 kts 245°
2026-05-07 19:12 51.97348 19.60363 25614 ft 392 kts 245°
2026-05-07 19:12 51.96452 19.56186 26037 ft 395 kts 245°
2026-05-07 19:13 51.95545 19.51957 26472 ft 396 kts 245°
2026-05-07 19:13 51.94637 19.47728 26900 ft 398 kts 245°
2026-05-07 19:13 51.93744 19.43574 27296 ft 400 kts 245°
2026-05-07 19:13 51.92819 19.39281 27701 ft 402 kts 245°
2026-05-07 19:14 51.91895 19.34998 28103 ft 404 kts 245°
2026-05-07 19:14 51.90973 19.30737 28492 ft 405 kts 244°
2026-05-07 19:14 51.90034 19.26403 28863 ft 407 kts 244°
2026-05-07 19:14 51.89089 19.22054 29212 ft 410 kts 244°
2026-05-07 19:15 51.88144 19.17716 29563 ft 412 kts 244°
2026-05-07 19:15 51.87188 19.13332 29983 ft 412 kts 244°
2026-05-07 19:15 51.86240 19.08988 30446 ft 409 kts 244°
2026-05-07 19:15 51.85293 19.04657 30911 ft 406 kts 244°
2026-05-07 19:16 51.84348 19.00342 31319 ft 405 kts 244°
2026-05-07 19:16 51.83399 18.96030 31684 ft 405 kts 244°
2026-05-07 19:16 51.82450 18.91724 32076 ft 403 kts 244°
2026-05-07 19:16 51.81507 18.87455 32503 ft 401 kts 244°
2026-05-07 19:17 51.80568 18.83216 32902 ft 400 kts 244°
2026-05-07 19:17 51.79635 18.79009 33255 ft 399 kts 244°
2026-05-07 19:17 51.78694 18.74779 33619 ft 398 kts 244°
2026-05-07 19:17 51.77754 18.70560 34018 ft 397 kts 244°
2026-05-07 19:18 51.76830 18.66418 34281 ft 397 kts 244°
2026-05-07 19:18 51.75878 18.62168 34444 ft 400 kts 244°
2026-05-07 19:18 51.74928 18.57934 34603 ft 402 kts 245°
2026-05-07 19:18 51.73973 18.53684 34816 ft 403 kts 245°
2026-05-07 19:19 51.73013 18.49421 35040 ft 404 kts 245°
2026-05-07 19:19 51.72053 18.45165 35215 ft 406 kts 245°
2026-05-07 19:19 51.71077 18.40844 35377 ft 408 kts 245°
2026-05-07 19:19 51.70103 18.36540 35584 ft 409 kts 245°
2026-05-07 19:20 51.69127 18.32238 35801 ft 409 kts 245°
2026-05-07 19:20 51.68145 18.27916 35981 ft 411 kts 246°
2026-05-07 19:20 51.66160 18.19213 36031 ft 416 kts 246°
2026-05-07 19:21 51.64162 18.10478 36033 ft 413 kts 246°
2026-05-07 19:21 51.62178 18.01839 36048 ft 410 kts 245°
2026-05-07 19:22 51.60194 17.93244 36047 ft 409 kts 245°
2026-05-07 19:22 51.58221 17.84736 36048 ft 409 kts 245°
2026-05-07 19:23 51.56207 17.76083 36049 ft 410 kts 245°
2026-05-07 19:23 51.54205 17.67516 36051 ft 411 kts 245°
2026-05-07 19:24 51.52181 17.58890 36049 ft 412 kts 245°
2026-05-07 19:24 51.50147 17.50257 36054 ft 414 kts 245°
2026-05-07 19:25 51.48086 17.41540 36052 ft 416 kts 246°
2026-05-07 19:25 51.46024 17.32854 36050 ft 417 kts 246°
2026-05-07 19:26 51.43949 17.24148 36051 ft 418 kts 246°
2026-05-07 19:26 51.42216 17.16905 36050 ft 419 kts 246°
2026-05-07 19:27 51.39771 17.06721 36050 ft 417 kts 246°
2026-05-07 19:27 51.37727 16.98234 36043 ft 405 kts 246°
2026-05-07 19:28 51.35695 16.89846 36053 ft 403 kts 246°
2026-05-07 19:28 51.34018 16.82944 36030 ft 391 kts 246°
2026-05-07 19:29 51.33050 16.78961 36030 ft 378 kts 245°
2026-05-07 19:29 51.32093 16.75039 36047 ft 380 kts 246°
2026-05-07 19:29 51.30130 16.67040 35988 ft 393 kts 246°
2026-05-07 19:30 51.28119 16.58862 35766 ft 396 kts 246°
2026-05-07 19:30 51.27128 16.54833 35633 ft 387 kts 246°
2026-05-07 19:30 51.26147 16.50848 35673 ft 386 kts 246°
2026-05-07 19:31 51.24140 16.42747 35675 ft 398 kts 246°
2026-05-07 19:31 51.22068 16.34409 35688 ft 408 kts 246°
2026-05-07 19:32 51.19958 16.25943 35703 ft 413 kts 246°
2026-05-07 19:32 51.17827 16.17424 35445 ft 413 kts 246°
2026-05-07 19:33 51.16771 16.13207 35215 ft 406 kts 246°
2026-05-07 19:33 51.15738 16.09093 34964 ft 399 kts 246°
2026-05-07 19:33 51.14711 16.05011 34725 ft 394 kts 245°
2026-05-07 19:33 51.13687 16.00955 34502 ft 392 kts 245°
2026-05-07 19:34 51.12673 15.96942 34237 ft 387 kts 245°
2026-05-07 19:34 51.11667 15.92972 33836 ft 384 kts 245°
2026-05-07 19:34 51.10673 15.89055 33440 ft 381 kts 245°
2026-05-07 19:34 51.09682 15.85157 33052 ft 378 kts 245°
2026-05-07 19:35 51.08699 15.81295 32678 ft 375 kts 245°
2026-05-07 19:35 51.07709 15.77414 32311 ft 372 kts 245°
2026-05-07 19:35 51.06734 15.73595 31941 ft 369 kts 245°
2026-05-07 19:35 51.05756 15.69773 31574 ft 367 kts 245°
2026-05-07 19:36 51.04808 15.66077 31227 ft 365 kts 245°
2026-05-07 19:36 51.03844 15.62320 30872 ft 362 kts 245°
2026-05-07 19:36 51.02889 15.58610 30514 ft 360 kts 245°
2026-05-07 19:36 51.01963 15.55015 30171 ft 358 kts 245°
2026-05-07 19:37 51.01005 15.51301 29755 ft 357 kts 245°
2026-05-07 19:37 51.00068 15.47671 29369 ft 353 kts 245°
2026-05-07 19:37 50.99146 15.44109 28998 ft 350 kts 245°
2026-05-07 19:37 50.98226 15.40555 28639 ft 347 kts 245°
2026-05-07 19:38 50.97313 15.37038 28271 ft 344 kts 245°
2026-05-07 19:38 50.96392 15.33493 27921 ft 340 kts 245°
2026-05-07 19:38 50.95537 15.30210 27577 ft 338 kts 246°
2026-05-07 19:38 50.94706 15.26702 26984 ft 342 kts 249°
2026-05-07 19:39 50.93965 15.23104 26607 ft 341 kts 250°
2026-05-07 19:39 50.93254 15.19515 26204 ft 341 kts 251°
2026-05-07 19:39 50.92537 15.15905 25854 ft 339 kts 251°
2026-05-07 19:39 50.91824 15.12352 25497 ft 337 kts 251°
2026-05-07 19:40 50.91110 15.08837 25154 ft 335 kts 251°
2026-05-07 19:40 50.90394 15.05335 24813 ft 333 kts 251°
2026-05-07 19:40 50.89674 15.01830 24483 ft 331 kts 251°
2026-05-07 19:40 50.88972 14.98419 24145 ft 330 kts 251°
2026-05-07 19:41 50.88257 14.94959 23811 ft 329 kts 251°
2026-05-07 19:41 50.87545 14.91523 23462 ft 327 kts 251°
2026-05-07 19:41 50.86734 14.88181 23066 ft 325 kts 241°
2026-05-07 19:41 50.85517 14.85197 22681 ft 323 kts 231°
2026-05-07 19:42 50.83912 14.82600 22230 ft 323 kts 220°
2026-05-07 19:42 50.82221 14.80363 21887 ft 321 kts 219°
2026-05-07 19:42 50.80491 14.78124 21555 ft 319 kts 219°
2026-05-07 19:42 50.78789 14.75926 21220 ft 317 kts 219°
2026-05-07 19:43 50.77096 14.73731 20906 ft 314 kts 219°
2026-05-07 19:43 50.75418 14.71546 20590 ft 312 kts 220°
2026-05-07 19:43 50.73777 14.69403 20283 ft 310 kts 220°
2026-05-07 19:43 50.72176 14.67311 19976 ft 308 kts 220°
2026-05-07 19:44 50.70534 14.65165 19672 ft 306 kts 220°
2026-05-07 19:44 50.68889 14.63014 19358 ft 305 kts 220°
2026-05-07 19:44 50.67264 14.60893 19053 ft 303 kts 220°
2026-05-07 19:44 50.65640 14.58771 18736 ft 302 kts 220°
2026-05-07 19:45 50.64028 14.56668 18428 ft 301 kts 220°
2026-05-07 19:45 50.62426 14.54579 18106 ft 300 kts 220°
2026-05-07 19:45 50.60815 14.52483 17767 ft 298 kts 220°
2026-05-07 19:45 50.59228 14.50420 17453 ft 296 kts 220°
2026-05-07 19:46 50.57587 14.48447 17138 ft 294 kts 215°
2026-05-07 19:46 50.55893 14.46683 16834 ft 292 kts 213°
2026-05-07 19:46 50.54161 14.44941 16529 ft 290 kts 213°
2026-05-07 19:46 50.52467 14.43231 16234 ft 288 kts 213°
2026-05-07 19:47 50.50781 14.41516 15936 ft 286 kts 214°
2026-05-07 19:47 50.49113 14.39807 15643 ft 285 kts 214°
2026-05-07 19:47 50.47489 14.38137 15351 ft 284 kts 214°
2026-05-07 19:47 50.45823 14.36425 15055 ft 282 kts 214°
2026-05-07 19:48 50.44166 14.34791 14749 ft 281 kts 206°
2026-05-07 19:48 50.42283 14.33978 14469 ft 281 kts 185°
2026-05-07 19:48 50.40335 14.34156 14197 ft 281 kts 174°
2026-05-07 19:48 50.38393 14.34559 13909 ft 280 kts 174°
2026-05-07 19:49 50.36455 14.34983 13585 ft 280 kts 174°
2026-05-07 19:49 50.34530 14.35398 13273 ft 278 kts 174°
2026-05-07 19:49 50.32678 14.35788 12983 ft 277 kts 174°
2026-05-07 19:49 50.30723 14.36191 12686 ft 275 kts 174°
2026-05-07 19:50 50.28830 14.36578 12408 ft 274 kts 174°
2026-05-07 19:50 50.26938 14.36960 12112 ft 272 kts 174°
2026-05-07 19:50 50.25063 14.37337 11834 ft 271 kts 174°
2026-05-07 19:50 50.23201 14.37710 11553 ft 270 kts 175°
2026-05-07 19:51 50.21342 14.38080 11279 ft 268 kts 174°
2026-05-07 19:51 50.19485 14.38450 10996 ft 268 kts 174°
2026-05-07 19:51 50.17642 14.38817 10719 ft 266 kts 174°
2026-05-07 19:51 50.15813 14.39181 10435 ft 266 kts 174°
2026-05-07 19:52 50.14032 14.40047 10128 ft 267 kts 148°
2026-05-07 19:52 50.12692 14.41954 10050 ft 263 kts 131°
2026-05-07 19:52 50.11558 14.44241 9718 ft 269 kts 128°
2026-05-07 19:52 50.10822 14.45821 9537 ft 268 kts 127°
2026-05-07 19:53 50.09367 14.48932 9165 ft 267 kts 128°
2026-05-07 19:53 50.08622 14.50495 8980 ft 265 kts 128°
2026-05-07 19:53 50.07158 14.53525 8621 ft 264 kts 129°
2026-05-07 19:53 50.06068 14.55767 8333 ft 257 kts 129°
2026-05-07 19:54 50.05010 14.57940 8110 ft 251 kts 129°
2026-05-07 19:54 50.04300 14.59397 7928 ft 248 kts 129°
2026-05-07 19:54 50.03253 14.61539 7697 ft 247 kts 129°
2026-05-07 19:54 50.02217 14.63658 7455 ft 245 kts 129°
2026-05-07 19:55 50.01186 14.65763 7212 ft 245 kts 129°
2026-05-07 19:55 50.00150 14.67877 6947 ft 246 kts 129°
2026-05-07 19:55 49.98952 14.69758 6511 ft 248 kts 154°
2026-05-07 19:55 49.97332 14.70346 6312 ft 229 kts 188°
2026-05-07 19:56 49.95897 14.69637 6167 ft 211 kts 216°
2026-05-07 19:56 49.94889 14.68110 6084 ft 201 kts 240°
2026-05-07 19:56 49.94406 14.66166 6016 ft 201 kts 262°
2026-05-07 19:56 49.94420 14.63982 5943 ft 206 kts 283°
2026-05-07 19:57 49.94927 14.61881 5841 ft 210 kts 293°
2026-05-07 19:57 49.95552 14.59784 5600 ft 215 kts 294°
2026-05-07 19:57 49.96183 14.57694 5365 ft 214 kts 294°
2026-05-07 19:57 49.96807 14.55610 5122 ft 213 kts 293°
2026-05-07 19:58 49.97419 14.53551 4921 ft 209 kts 294°
2026-05-07 19:58 49.98022 14.51517 4667 ft 198 kts 294°
2026-05-07 19:58 49.98585 14.49670 4453 ft 188 kts 299°
2026-05-07 19:58 49.99347 14.48067 4243 ft 181 kts 309°
2026-05-07 19:59 50.00135 14.46621 4184 ft 172 kts 307°
2026-05-07 19:59 50.00900 14.45098 3958 ft 178 kts 306°
2026-05-07 19:59 50.01671 14.43509 3720 ft 184 kts 306°
2026-05-07 19:59 50.02442 14.41905 3470 ft 185 kts 307°
2026-05-07 20:00 50.03212 14.40301 3237 ft 180 kts 307°
2026-05-07 20:00 50.03936 14.38790 3003 ft 167 kts 308°
2026-05-07 20:00 50.04608 14.37391 2799 ft 154 kts 308°
2026-05-07 20:00 50.05226 14.36107 2561 ft 142 kts 309°
2026-05-07 20:01 50.05806 14.34903 2387 ft 139 kts 309°
2026-05-07 20:01 50.06391 14.33684 2202 ft 143 kts 309°
2026-05-07 20:01 50.06991 14.32439 1983 ft 142 kts 309°
2026-05-07 20:01 50.07562 14.31206 1784 ft 139 kts 308°
2026-05-07 20:02 50.08148 14.29981 1576 ft 142 kts 310°
2026-05-07 20:02 50.08737 14.28777 1415 ft 138 kts 310°
2026-05-07 20:02 50.09329 14.27567 1260 ft 136 kts 309°
2026-05-07 20:02 50.09841 14.26531 1203 ft 96 kts 305°
2026-05-07 20:03 50.10112 14.25966 1186 ft 44 kts 307°
2026-05-07 20:03 50.10335 14.25670 1182 ft 41 kts 346°
2026-05-07 20:03 50.10404 14.25658 1182 ft 0 kts 360°
2026-05-07 20:04 50.10416 14.25658 1182 ft 5 kts
2026-05-07 20:04 50.10468 14.25672 1182 ft 10 kts 12°
2026-05-07 20:04 50.10536 14.25712 1178 ft 11 kts 37°
2026-05-07 20:04 50.10598 14.25780 1180 ft 11 kts 34°
2026-05-07 20:05 50.10658 14.25845 1177 ft 11 kts 35°
2026-05-07 20:05 50.10723 14.25916 1173 ft 12 kts 35°
2026-05-07 20:05 50.10746 14.25988 1173 ft 4 kts 109°
2026-05-07 20:05 50.10730 14.26011 1173 ft 3 kts 133°
2026-05-07 20:06 50.10717 14.26037 1175 ft 3 kts 126°
2026-05-07 20:06 50.10715 14.26043 1175 ft 0 kts 125°